Regional Weather Roundup
Issued by NWS Cleveland, OH

Home | Current Version | Previous Version | Graphics & Text | Print | Product List | Glossary On
Versions: 1 2 3 4 5 6 7 8 9 10 11 12 13 14 15 16 17 18 19 20 21 22 23 24 25 26 27 28 29 30 31 32 33 34 35 36 37 38 39 40 41 42 43 44 45 46 47 48 49 50
000
ASUS41 KCLE 231100
RWRCLE
OHIO REGIONAL WEATHER ROUNDUP
NATIONAL WEATHER SERVICE WILMINGTON, OH
700 AM EDT WED JUL 23 2014

NOTE: "FAIR" INDICATES FEW OR NO CLOUDS BELOW 12,000 FEET WITH NO
SIGNIFICANT WEATHER AND/OR OBSTRUCTIONS TO VISIBILITY.

OHZ001>008-015>018-024>027-034-035-043-044-231200-
   NORTHWEST OHIO

CITY           SKY/WX    TMP DP  RH WIND       PRES   REMARKS
DEFIANCE       LGT RAIN  72  66  81 VRB3      30.01F
FINDLAY        LGT RAIN  71  68  90 SW7       30.03R FOG
TOLEDO EXPRESS CLOUDY    72  68  87 W7        29.98S
TOLEDO METCALF CLOUDY    73  68  84 W8        29.99R
LIMA           LGT RAIN  71  66  84 S8        30.04R
$$

OHZ009>014-019>023-028>033-038-089-231200-
   NORTHEAST OHIO

CITY           SKY/WX    TMP DP  RH WIND       PRES   REMARKS
CLE-HOPKINS    LGT RAIN  71  69  93 SW9       29.97F FOG
CLE-LAKEFRONT  LGT RAIN  74  70  87 CALM      29.91F
CUY CO. ARPT   LGT RAIN  77  72  83 SW9       29.95
LORAIN-ELYRIA  LGT RAIN  73  68  84 W6        29.96S
ASHTABULA      LGT RAIN  72  68  87 S8        29.94F FOG
AKRON-CANTON   CLOUDY    73  67  81 SW5       29.99F
WOOSTER        NOT AVBL
MANSFIELD      CLOUDY    70  69  97 SW6       30.02S FOG
YOUNGSTOWN     CLOUDY    73  68  84 S7        29.98F
$$

OHZ042-051>053-060>062-070>072-077>081-231200-
  SOUTHWEST OHIO

CITY           SKY/WX    TMP DP  RH WIND       PRES   REMARKS
CINC-COVINGTON MOCLDY    74  68  81 CALM      30.06R
CINC-LUNKEN    MOCLDY    70  69  97 NE5       30.06R
HAMILTON       LGT RAIN  74  70  87 N13       30.09R
DAYTON         NOT AVBL
WRIGHT-PAT AFB NOT AVBL
DAYTON GENERAL HVY RAIN  70  68  93 NE12      30.10R FOG
WILMINGTON     CLOUDY    74  67  78 NW12G17   30.09R
$$

OHZ036-037-039>041-045>050-054>059-063>069-073>076-082>088-231200-
  CENTRAL AND SOUTHEAST OHIO

CITY           SKY/WX    TMP DP  RH WIND       PRES   REMARKS
COLUMBUS       MOCLDY    77  67  71 W9        30.03S
OSU AIRPORT    LGT RAIN  73  67  81 W6        30.05R
BOLTON FIELD   NOT AVBL
RICKENBACK AFB NOT AVBL
NEWARK         MOCLDY    72  68  87 W5        30.02F
MARION         RAIN      69  67  93 SW7       30.03R FOG
LANCASTER      MOCLDY    72  68  87 W3        30.05R
ZANESVILLE     PTCLDY    72  69  90 S6        30.02F
NEW PHILLY     CLOUDY    71  70  96 S6        30.00F FOG
$$


USA.gov is the U.S. government's official web portal to all federal, state and local government web resources and services.